QPF
0.13 0.17 0.17 0.16 0.19 0.19 0.16 0.14 0.13 0.10 0.10 0.10 0.12 0.13 0.13 0.12 0.11 0.11 0.10 0.08 0.06 0.05 0.04 0.03 0.02 0.02 0.02 0.02 0.02 0.01 0.01 0.01 0.01 0.01 0.01 0.00 0.00 0.00 0.00 0.00 0.00 0.00 0.00
0.05 0.09 0.08 0.08 0.11 0.14 0.13 0.11 0.10 0.10 0.08 0.07 0.07 0.08 0.09 0.10 0.09 0.09 0.09 0.09 0.07 0.06 0.04 0.03 0.02 0.02 0.01 0.01 0.01 0.01 0.01 0.01 0.01 0.01 0.00 0.00 0.00 0.00 0.00 0.00 0.00 0.00 0.00
0.03 0.03 0.02 0.03 0.04 0.05 0.07 0.07 0.07 0.08 0.08 0.06 0.05 0.05 0.05 0.04 0.04 0.04 0.04 0.04 0.03 0.03 0.03 0.02 0.02 0.01 0.01 0.01 0.01 0.01 0.00 0.00 0.00 0.00 0.00 0.00 0.00 0.00 0.00 0.00 0.00 0.00 0.00
0.02 0.02 0.02 0.02 0.02 0.03 0.03 0.03 0.03 0.04 0.04 0.04 0.04 0.03 0.02 0.02 0.02 0.01 0.01 0.01 0.01 0.01 0.01 0.01 0.01 0.01 0.01 0.01 0.01 0.01 0.00 0.00 0.00 0.00 0.00 0.00 0.00 0.00 0.00 0.00 0.00 0.00 0.00
0.00 0.01 0.01 0.01 0.01 0.02 0.02 0.01 0.01 0.01 0.02 0.02 0.01 0.01 0.01 0.01 0.01 0.01 0.01 0.01 0.00 0.00 0.00 0.00 0.00 0.01 0.00 0.00 0.00 0.00 0.00 0.00 0.00 0.00 0.00 0.00 0.00 0.00 0.00 0.00 0.00 0.00 0.00
0.00 0.00 0.00 0.00 0.00 0.01 0.02 0.01 0.01 0.01 0.01 0.01 0.01 0.01 0.01 0.00 0.00 0.00 0.00 0.00 0.00 0.00 0.01 0.01 0.01 0.01 0.01 0.00 0.00 0.00 0.00 0.00 0.00 0.00 0.00 0.00 0.00 0.00 0.00 0.00 0.00 0.00 0.00
0.00 0.00 0.00 0.00 0.01 0.01 0.01 0.02 0.02 0.01 0.01 0.01 0.01 0.01 0.00 0.00 0.01 0.01 0.01 0.00 0.00 0.01 0.01 0.01 0.01 0.01 0.01 0.01 0.01 0.01 0.00 0.00 0.00 0.00 0.00 0.00 0.00 0.00 0.00 0.00 0.00 0.00 0.00
0.00 0.00 0.00 0.00 0.00 0.01 0.01 0.01 0.02 0.02 0.02 0.02 0.01 0.01 0.01 0.01 0.01 0.01 0.01 0.01 0.01 0.01 0.01 0.01 0.01 0.01 0.01 0.01 0.01 0.01 0.00 0.00 0.00 0.00 0.00 0.00 0.00 0.00 0.00 0.00 0.00 0.00 0.00
0.00 0.00 0.00 0.00 0.00 0.00 0.00 0.00 0.00 0.01 0.01 0.01 0.01 0.01 0.01 0.01 0.01 0.02 0.02 0.01 0.01 0.01 0.01 0.01 0.01 0.00 0.01 0.01 0.00 0.00 0.00 0.00 0.00 0.00 0.00 0.00 0.00 0.00 0.00 0.00 0.00 0.00 0.00
0.00 0.00 0.00 0.00 0.00 0.00 0.00 0.00 0.00 0.00 0.00 0.00 0.00 0.00 0.01 0.01 0.02 0.02 0.02 0.02 0.02 0.01 0.01 0.01 0.01 0.01 0.01 0.01 0.01 0.00 0.00 0.00 0.00 0.00 0.00 0.00 0.00 0.00 0.00 0.00 0.00 0.00 0.00
0.00 0.00 0.00 0.00 0.00 0.00 0.00 0.00 0.00 0.01 0.01 0.01 0.01 0.01 0.01 0.01 0.02 0.02 0.03 0.02 0.02 0.02 0.02 0.02 0.02 0.02 0.02 0.02 0.01 0.01 0.00 0.00 0.00 0.00 0.00 0.00 0.00 0.00 0.00 0.00 0.00 0.00 0.00
0.00 0.00 0.00 0.00 0.00 0.00 0.00 0.00 0.00 0.01 0.01 0.01 0.02 0.02 0.01 0.01 0.02 0.03 0.03 0.04 0.03 0.03 0.02 0.02 0.02 0.03 0.03 0.02 0.01 0.01 0.01 0.00 0.00 0.00 0.00 0.00 0.00 0.00 0.00 0.00 0.00 0.00 0.00
0.01 0.01 0.00 0.00 0.00 0.00 0.00 0.00 0.01 0.01 0.02 0.02 0.03 0.03 0.03 0.03 0.03 0.05 0.05 0.06 0.06 0.05 0.03 0.03 0.03 0.03 0.03 0.02 0.01 0.01 0.01 0.00 0.00 0.00 0.00 0.00 0.00 0.00 0.00 0.00 0.00 0.00 0.00
0.01 0.01 0.01 0.01 0.01 0.02 0.02 0.01 0.01 0.01 0.02 0.02 0.03 0.03 0.04 0.04 0.05 0.06 0.07 0.08 0.08 0.07 0.06 0.05 0.05 0.05 0.04 0.03 0.02 0.01 0.01 0.00 0.00 0.00 0.00 0.00 0.00 0.00 0.00 0.00 0.00 0.00 0.00
0.01 0.02 0.02 0.02 0.02 0.03 0.03 0.04 0.04 0.03 0.03 0.03 0.04 0.04 0.05 0.05 0.05 0.07 0.08 0.09 0.09 0.09 0.09 0.07 0.06 0.05 0.04 0.03 0.02 0.02 0.01 0.01 0.01 0.00 0.00 0.00 0.00 0.00 0.00 0.00 0.00 0.00 0.00
0.02 0.02 0.02 0.02 0.03 0.03 0.03 0.03 0.04 0.04 0.05 0.05 0.05 0.06 0.06 0.06 0.07 0.09 0.10 0.10 0.11 0.12 0.13 0.09 0.06 0.04 0.03 0.02 0.02 0.02 0.01 0.01 0.01 0.01 0.01 0.00 0.00 0.00 0.00 0.00 0.00 0.00 0.00
0.03 0.03 0.03 0.03 0.03 0.04 0.04 0.04 0.04 0.04 0.05 0.05 0.05 0.05 0.06 0.06 0.08 0.09 0.11 0.13 0.14 0.15 0.14 0.08 0.05 0.03 0.03 0.02 0.02 0.02 0.01 0.01 0.02 0.01 0.01 0.01 0.00 0.00 0.00 0.00 0.00 0.00 0.00
0.03 0.03 0.03 0.04 0.04 0.04 0.04 0.04 0.04 0.04 0.04 0.04 0.05 0.06 0.07 0.08 0.09 0.10 0.13 0.16 0.16 0.14 0.10 0.06 0.04 0.03 0.03 0.03 0.03 0.02 0.02 0.02 0.02 0.02 0.01 0.01 0.00 0.00 0.00 0.00 0.00 0.00 0.00
0.02 0.02 0.02 0.02 0.02 0.02 0.03 0.03 0.03 0.03 0.04 0.04 0.04 0.05 0.07 0.09 0.10 0.11 0.14 0.14 0.12 0.08 0.06 0.04 0.04 0.04 0.05 0.04 0.04 0.03 0.03 0.03 0.02 0.02 0.02 0.01 0.01 0.01 0.01 0.00 0.00 0.00 0.00
0.01 0.01 0.02 0.02 0.02 0.02 0.02 0.02 0.03 0.03 0.03 0.04 0.04 0.05 0.07 0.10 0.11 0.10 0.11 0.10 0.08 0.07 0.06 0.06 0.06 0.06 0.07 0.07 0.06 0.05 0.04 0.03 0.03 0.02 0.02 0.02 0.02 0.02 0.01 0.01 0.01 0.00 0.00
0.01 0.01 0.01 0.01 0.02 0.02 0.02 0.02 0.02 0.03 0.03 0.03 0.03 0.04 0.07 0.09 0.09 0.08 0.08 0.09 0.08 0.07 0.07 0.07 0.08 0.08 0.08 0.08 0.07 0.06 0.04 0.03 0.02 0.02 0.03 0.03 0.03 0.02 0.02 0.01 0.01 0.01 0.01
0.00 0.01 0.01 0.01 0.01 0.01 0.02 0.02 0.02 0.02 0.03 0.03 0.03 0.04 0.05 0.06 0.07 0.07 0.07 0.07 0.07 0.08 0.08 0.09 0.09 0.08 0.08 0.08 0.07 0.06 0.05 0.04 0.03 0.03 0.03 0.04 0.04 0.04 0.03 0.03 0.02 0.02 0.02
0.00 0.01 0.01 0.01 0.01 0.01 0.01 0.01 0.02 0.02 0.02 0.03 0.03 0.03 0.04 0.04 0.04 0.05 0.05 0.06 0.06 0.07 0.08 0.09 0.09 0.08 0.07 0.07 0.07 0.06 0.05 0.04 0.03 0.03 0.04 0.05 0.05 0.04 0.04 0.04 0.03 0.03 0.03
0.00 0.01 0.01 0.01 0.01 0.01 0.01 0.01 0.02 0.02 0.03 0.03 0.03 0.03 0.04 0.04 0.04 0.04 0.05 0.05 0.06 0.06 0.07 0.08 0.08 0.07 0.06 0.07 0.07 0.06 0.05 0.05 0.05 0.05 0.05 0.05 0.05 0.05 0.05 0.04 0.03 0.03 0.03
0.01 0.01 0.01 0.01 0.01 0.01 0.01 0.01 0.02 0.02 0.03 0.03 0.04 0.04 0.04 0.04 0.04 0.04 0.05 0.05 0.06 0.06 0.07 0.07 0.07 0.06 0.06 0.06 0.06 0.06 0.06 0.07 0.07 0.06 0.06 0.06 0.06 0.05 0.05 0.05 0.04 0.04 0.04
0.01 0.01 0.01 0.01 0.01 0.02 0.02 0.02 0.02 0.02 0.03 0.04 0.04 0.05 0.05 0.05 0.05 0.05 0.05 0.06 0.06 0.06 0.06 0.07 0.06 0.06 0.06 0.06 0.06 0.06 0.07 0.07 0.06 0.06 0.06 0.06 0.06 0.05 0.05 0.05 0.05 0.05 0.04
MSLP
1010.36 1010.51 1010.66 1010.81 1010.98 1011.16 1011.35 1011.55 1011.74 1011.93 1012.09 1012.25 1012.39 1012.53 1012.67 1012.82 1013.00 1013.21 1013.46 1013.75 1014.07 1014.44 1014.83 1015.24 1015.68 1016.12 1016.57 1017.03 1017.47 1017.90 1018.32 1018.71 1019.08 1019.40 1019.68 1019.91 1020.09 1020.21 1020.27 1020.29 1020.27 1020.22 1020.17
1011.14 1011.17 1011.20 1011.23 1011.28 1011.35 1011.45 1011.57 1011.70 1011.84 1011.98 1012.13 1012.27 1012.42 1012.58 1012.75 1012.94 1013.16 1013.41 1013.69 1014.00 1014.34 1014.71 1015.10 1015.52 1015.96 1016.42 1016.89 1017.36 1017.83 1018.27 1018.69 1019.06 1019.40 1019.68 1019.91 1020.09 1020.22 1020.31 1020.37 1020.40 1020.41 1020.41
1011.89 1011.83 1011.76 1011.69 1011.65 1011.63 1011.66 1011.71 1011.79 1011.89 1012.01 1012.14 1012.28 1012.44 1012.61 1012.79 1012.99 1013.21 1013.45 1013.72 1014.00 1014.31 1014.65 1015.02 1015.42 1015.85 1016.30 1016.78 1017.27 1017.75 1018.21 1018.64 1019.02 1019.35 1019.63 1019.86 1020.03 1020.17 1020.29 1020.38 1020.46 1020.53 1020.59
1012.57 1012.43 1012.29 1012.16 1012.05 1011.98 1011.95 1011.96 1012.00 1012.07 1012.17 1012.28 1012.42 1012.57 1012.73 1012.92 1013.11 1013.33 1013.55 1013.79 1014.05 1014.33 1014.63 1014.97 1015.35 1015.76 1016.21 1016.69 1017.18 1017.66 1018.13 1018.56 1018.94 1019.26 1019.53 1019.73 1019.91 1020.05 1020.18 1020.30 1020.42 1020.54 1020.66
1013.13 1012.95 1012.77 1012.60 1012.45 1012.35 1012.28 1012.26 1012.28 1012.32 1012.40 1012.49 1012.61 1012.75 1012.91 1013.08 1013.26 1013.46 1013.66 1013.88 1014.10 1014.35 1014.62 1014.93 1015.28 1015.68 1016.12 1016.59 1017.08 1017.57 1018.03 1018.45 1018.81 1019.11 1019.35 1019.54 1019.70 1019.84 1019.97 1020.11 1020.27 1020.44 1020.61
1013.58 1013.38 1013.18 1012.99 1012.83 1012.71 1012.63 1012.58 1012.57 1012.60 1012.64 1012.72 1012.81 1012.93 1013.06 1013.21 1013.38 1013.55 1013.73 1013.92 1014.12 1014.34 1014.59 1014.87 1015.21 1015.59 1016.02 1016.49 1016.97 1017.45 1017.90 1018.30 1018.64 1018.91 1019.13 1019.29 1019.42 1019.55 1019.69 1019.85 1020.03 1020.24 1020.46
1013.93 1013.72 1013.52 1013.33 1013.17 1013.04 1012.94 1012.88 1012.85 1012.84 1012.86 1012.89 1012.96 1013.04 1013.14 1013.26 1013.40 1013.54 1013.70 1013.87 1014.05 1014.25 1014.49 1014.76 1015.09 1015.47 1015.89 1016.35 1016.83 1017.30 1017.73 1018.12 1018.43 1018.68 1018.86 1019.00 1019.11 1019.22 1019.36 1019.54 1019.75 1019.99 1020.25
1014.22 1014.02 1013.82 1013.63 1013.47 1013.33 1013.22 1013.12 1013.06 1013.01 1012.98 1012.97 1012.99 1013.03 1013.09 1013.17 1013.28 1013.40 1013.53 1013.68 1013.85 1014.05 1014.28 1014.56 1014.89 1015.27 1015.70 1016.17 1016.64 1017.11 1017.53 1017.90 1018.20 1018.42 1018.58 1018.70 1018.80 1018.91 1019.05 1019.23 1019.47 1019.75 1020.05
1014.50 1014.30 1014.10 1013.91 1013.74 1013.58 1013.43 1013.30 1013.18 1013.08 1012.99 1012.92 1012.88 1012.87 1012.88 1012.92 1012.99 1013.08 1013.20 1013.33 1013.50 1013.70 1013.94 1014.23 1014.57 1014.97 1015.42 1015.90 1016.39 1016.86 1017.28 1017.65 1017.94 1018.16 1018.31 1018.42 1018.52 1018.63 1018.78 1018.99 1019.25 1019.56 1019.90
1014.79 1014.59 1014.39 1014.19 1013.99 1013.79 1013.60 1013.41 1013.23 1013.06 1012.90 1012.76 1012.65 1012.57 1012.52 1012.52 1012.54 1012.60 1012.69 1012.82 1012.98 1013.19 1013.45 1013.76 1014.13 1014.55 1015.03 1015.53 1016.04 1016.53 1016.98 1017.36 1017.66 1017.89 1018.05 1018.18 1018.29 1018.42 1018.59 1018.82 1019.11 1019.44 1019.81
1015.10 1014.90 1014.68 1014.45 1014.21 1013.97 1013.72 1013.47 1013.21 1012.96 1012.72 1012.51 1012.32 1012.17 1012.06 1011.99 1011.97 1011.99 1012.05 1012.16 1012.32 1012.54 1012.81 1013.14 1013.54 1014.00 1014.51 1015.05 1015.59 1016.12 1016.60 1017.01 1017.35 1017.61 1017.80 1017.96 1018.10 1018.26 1018.46 1018.71 1019.03 1019.39 1019.78
1015.40 1015.18 1014.94 1014.68 1014.40 1014.11 1013.80 1013.48 1013.15 1012.82 1012.50 1012.21 1011.94 1011.72 1011.53 1011.40 1011.33 1011.30 1011.33 1011.41 1011.56 1011.77 1012.05 1012.40 1012.83 1013.32 1013.87 1014.45 1015.04 1015.61 1016.13 1016.60 1016.98 1017.29 1017.54 1017.74 1017.93 1018.13 1018.36 1018.64 1018.97 1019.35 1019.76
1015.63 1015.39 1015.12 1014.83 1014.52 1014.18 1013.82 1013.45 1013.06 1012.66 1012.28 1011.91 1011.57 1011.28 1011.03 1010.83 1010.68 1010.60 1010.58 1010.63 1010.74 1010.94 1011.22 1011.58 1012.02 1012.54 1013.12 1013.74 1014.38 1015.00 1015.59 1016.11 1016.56 1016.93 1017.24 1017.50 1017.73 1017.97 1018.24 1018.55 1018.90 1019.29 1019.70
1015.75 1015.48 1015.19 1014.88 1014.54 1014.18 1013.79 1013.38 1012.95 1012.52 1012.09 1011.67 1011.27 1010.91 1010.59 1010.32 1010.11 1009.96 1009.88 1009.87 1009.94 1010.10 1010.36 1010.71 1011.16 1011.70 1012.31 1012.96 1013.64 1014.32 1014.96 1015.54 1016.05 1016.49 1016.87 1017.18 1017.47 1017.76 1018.06 1018.38 1018.75 1019.14 1019.55
1015.69 1015.42 1015.12 1014.80 1014.46 1014.09 1013.70 1013.28 1012.85 1012.40 1011.94 1011.50 1011.06 1010.65 1010.27 1009.94 1009.65 1009.43 1009.27 1009.19 1009.21 1009.32 1009.54 1009.86 1010.30 1010.84 1011.46 1012.14 1012.85 1013.57 1014.26 1014.90 1015.48 1015.98 1016.41 1016.79 1017.12 1017.45 1017.77 1018.12 1018.48 1018.88 1019.28
1015.48 1015.19 1014.89 1014.58 1014.26 1013.91 1013.55 1013.15 1012.74 1012.31 1011.86 1011.40 1010.95 1010.51 1010.08 1009.69 1009.33 1009.03 1008.79 1008.64 1008.58 1008.62 1008.78 1009.07 1009.47 1009.99 1010.61 1011.30 1012.03 1012.78 1013.51 1014.20 1014.83 1015.38 1015.86 1016.29 1016.67 1017.02 1017.37 1017.73 1018.10 1018.49 1018.89
1015.13 1014.84 1014.56 1014.27 1013.97 1013.67 1013.34 1013.00 1012.62 1012.23 1011.81 1011.36 1010.91 1010.45 1009.99 1009.54 1009.13 1008.75 1008.43 1008.20 1008.05 1008.03 1008.12 1008.35 1008.71 1009.19 1009.79 1010.47 1011.21 1011.97 1012.73 1013.45 1014.11 1014.71 1015.24 1015.70 1016.11 1016.50 1016.86 1017.23 1017.61 1018.00 1018.40
1014.72 1014.44 1014.16 1013.90 1013.64 1013.38 1013.10 1012.81 1012.48 1012.13 1011.75 1011.33 1010.89 1010.42 1009.94 1009.46 1008.99 1008.55 1008.16 1007.84 1007.62 1007.51 1007.54 1007.70 1008.00 1008.44 1009.00 1009.66 1010.39 1011.15 1011.92 1012.66 1013.35 1013.98 1014.54 1015.03 1015.48 1015.88 1016.27 1016.65 1017.04 1017.44 1017.84
1014.33 1014.03 1013.77 1013.52 1013.29 1013.06 1012.82 1012.57 1012.30 1011.98 1011.64 1011.25 1010.82 1010.36 1009.87 1009.36 1008.85 1008.36 1007.92 1007.53 1007.24 1007.06 1007.01 1007.10 1007.35 1007.73 1008.25 1008.87 1009.57 1010.32 1011.09 1011.83 1012.54 1013.19 1013.77 1014.30 1014.77 1015.20 1015.61 1016.01 1016.41 1016.82 1017.24
1014.00 1013.69 1013.42 1013.17 1012.94 1012.73 1012.51 1012.28 1012.03 1011.74 1011.42 1011.06 1010.64 1010.19 1009.70 1009.18 1008.66 1008.14 1007.65 1007.22 1006.87 1006.63 1006.51 1006.54 1006.72 1007.05 1007.51 1008.09 1008.76 1009.48 1010.23 1010.97 1011.68 1012.35 1012.95 1013.50 1014.00 1014.46 1014.89 1015.32 1015.74 1016.17 1016.60
1013.77 1013.43 1013.13 1012.85 1012.61 1012.38 1012.15 1011.91 1011.66 1011.38 1011.07 1010.72 1010.32 1009.88 1009.40 1008.89 1008.36 1007.83 1007.33 1006.87 1006.48 1006.19 1006.03 1006.00 1006.11 1006.38 1006.78 1007.31 1007.93 1008.62 1009.34 1010.07 1010.78 1011.46 1012.08 1012.66 1013.18 1013.67 1014.14 1014.59 1015.03 1015.48 1015.94
1013.61 1013.23 1012.88 1012.56 1012.27 1011.99 1011.72 1011.45 1011.17 1010.88 1010.56 1010.21 1009.83 1009.41 1008.96 1008.47 1007.96 1007.45 1006.94 1006.48 1006.07 1005.76 1005.55 1005.47 1005.52 1005.73 1006.07 1006.53 1007.10 1007.75 1008.44 1009.15 1009.86 1010.53 1011.18 1011.77 1012.33 1012.85 1013.34 1013.82 1014.30 1014.77 1015.25
1013.49 1013.06 1012.64 1012.26 1011.89 1011.55 1011.22 1010.89 1010.57 1010.25 1009.92 1009.57 1009.21 1008.81 1008.39 1007.95 1007.48 1007.00 1006.52 1006.07 1005.67 1005.34 1005.10 1004.97 1004.98 1005.12 1005.39 1005.79 1006.30 1006.89 1007.55 1008.23 1008.92 1009.60 1010.25 1010.87 1011.46 1012.01 1012.53 1013.04 1013.54 1014.04 1014.53
1013.35 1012.85 1012.38 1011.92 1011.48 1011.06 1010.65 1010.27 1009.90 1009.55 1009.20 1008.86 1008.52 1008.16 1007.79 1007.39 1006.98 1006.55 1006.12 1005.70 1005.31 1004.98 1004.72 1004.56 1004.52 1004.59 1004.80 1005.13 1005.57 1006.11 1006.71 1007.36 1008.03 1008.70 1009.36 1010.00 1010.60 1011.18 1011.73 1012.27 1012.79 1013.30 1013.81
1013.14 1012.60 1012.06 1011.54 1011.03 1010.54 1010.07 1009.63 1009.22 1008.84 1008.49 1008.16 1007.85 1007.54 1007.22 1006.89 1006.54 1006.18 1005.80 1005.42 1005.06 1004.73 1004.46 1004.27 1004.18 1004.20 1004.34 1004.60 1004.97 1005.44 1005.99 1006.60 1007.24 1007.90 1008.55 1009.20 1009.82 1010.42 1010.99 1011.55 1012.09 1012.61 1013.13
1012.87 1012.29 1011.71 1011.14 1010.58 1010.04 1009.52 1009.05 1008.61 1008.22 1007.88 1007.57 1007.29 1007.03 1006.78 1006.51 1006.23 1005.93 1005.62 1005.28 1004.95 1004.63 1004.36 1004.14 1004.01 1003.97 1004.05 1004.24 1004.54 1004.95 1005.44 1006.00 1006.61 1007.24 1007.89 1008.53 1009.16 1009.77 1010.36 1010.93 1011.49 1012.02 1012.55
Thickness
5593 5597 5599 5600 5601 5603 5603 5603 5603 5603 5602 5601 5601 5600 5599 5599 5598 5596 5595 5593 5592 5590 5587 5585 5582 5581 5578 5575 5573 5570 5567 5565 5562 5559 5556 5552 5548 5544 5539 5536 5532 5529 5526
5584 5587 5590 5591 5592 5593 5593 5593 5593 5593 5593 5592 5592 5591 5590 5590 5589 5587 5586 5583 5581 5579 5577 5575 5573 5570 5568 5565 5562 5559 5556 5554 5551 5547 5543 5539 5536 5532 5528 5524 5521 5518 5514
5575 5577 5578 5580 5581 5582 5582 5583 5583 5583 5582 5582 5581 5580 5579 5578 5576 5576 5574 5572 5570 5568 5566 5565 5562 5559 5556 5553 5551 5548 5545 5542 5539 5536 5532 5528 5524 5520 5517 5513 5509 5506 5503
5565 5567 5567 5568 5569 5570 5571 5571 5571 5571 5571 5570 5569 5568 5567 5566 5565 5563 5562 5560 5558 5557 5555 5553 5550 5548 5545 5542 5539 5536 5533 5530 5527 5524 5521 5517 5513 5510 5506 5502 5498 5495 5492
5554 5555 5555 5556 5557 5557 5558 5558 5558 5558 5558 5557 5555 5554 5554 5553 5551 5550 5548 5547 5545 5543 5541 5540 5537 5535 5533 5531 5528 5525 5522 5519 5516 5513 5510 5506 5503 5499 5496 5494 5490 5486 5482
5542 5542 5543 5544 5544 5544 5544 5544 5544 5544 5543 5542 5541 5540 5538 5538 5537 5536 5534 5532 5531 5529 5527 5525 5523 5521 5519 5518 5516 5515 5512 5509 5506 5503 5501 5498 5495 5491 5488 5484 5480 5475 5472
5529 5529 5530 5530 5529 5529 5530 5529 5528 5528 5527 5526 5525 5524 5523 5523 5522 5520 5519 5517 5516 5514 5512 5510 5509 5508 5506 5503 5502 5501 5499 5497 5496 5494 5492 5490 5487 5484 5479 5474 5471 5467 5465
5517 5516 5516 5515 5514 5514 5513 5512 5511 5510 5509 5508 5508 5507 5506 5506 5506 5505 5503 5501 5500 5500 5499 5498 5496 5495 5493 5491 5489 5487 5485 5484 5484 5482 5481 5479 5478 5476 5472 5467 5463 5458 5454
5502 5501 5501 5500 5498 5497 5496 5495 5493 5491 5490 5490 5490 5489 5488 5488 5488 5488 5487 5485 5484 5484 5485 5484 5483 5482 5481 5479 5476 5474 5472 5471 5470 5470 5469 5468 5466 5464 5461 5457 5452 5448 5444
5488 5487 5486 5485 5483 5481 5478 5476 5474 5473 5472 5471 5470 5470 5470 5471 5472 5471 5471 5470 5470 5470 5470 5471 5472 5471 5470 5469 5465 5463 5461 5459 5458 5457 5456 5455 5454 5452 5451 5448 5444 5440 5438
5474 5473 5471 5469 5467 5464 5462 5459 5456 5454 5453 5452 5452 5452 5453 5454 5455 5456 5456 5456 5456 5456 5457 5458 5458 5459 5459 5458 5456 5454 5452 5450 5447 5445 5443 5442 5441 5439 5438 5437 5435 5434 5430
5461 5458 5456 5454 5451 5448 5444 5441 5438 5435 5434 5433 5433 5434 5435 5437 5439 5441 5442 5443 5443 5443 5444 5446 5446 5447 5447 5446 5445 5444 5443 5441 5437 5434 5432 5430 5429 5427 5426 5426 5425 5424 5422
5444 5440 5438 5435 5432 5429 5425 5422 5419 5417 5415 5416 5416 5417 5419 5420 5422 5425 5427 5428 5429 5430 5432 5434 5434 5435 5435 5434 5434 5433 5432 5429 5426 5424 5423 5422 5420 5418 5416 5415 5413 5412 5410
5425 5422 5419 5416 5413 5409 5406 5403 5401 5399 5398 5398 5399 5400 5401 5403 5404 5407 5410 5413 5415 5417 5418 5420 5422 5422 5422 5423 5422 5422 5421 5419 5417 5416 5414 5412 5411 5408 5406 5405 5403 5401 5399
5406 5403 5399 5396 5393 5390 5388 5385 5383 5381 5379 5380 5381 5382 5383 5387 5390 5392 5394 5397 5401 5404 5404 5405 5407 5409 5409 5409 5409 5410 5410 5408 5408 5406 5405 5403 5402 5400 5398 5397 5395 5392 5391
5388 5384 5380 5376 5373 5370 5368 5368 5366 5364 5364 5364 5365 5366 5369 5372 5375 5378 5381 5385 5388 5390 5392 5395 5398 5399 5401 5401 5401 5401 5401 5400 5400 5399 5397 5396 5394 5392 5390 5389 5387 5385 5384
5370 5365 5361 5357 5354 5350 5349 5348 5348 5349 5348 5348 5349 5351 5354 5357 5361 5365 5368 5372 5376 5379 5382 5386 5389 5391 5393 5394 5394 5394 5394 5393 5392 5391 5390 5388 5387 5385 5383 5381 5380 5378 5377
5353 5348 5343 5338 5335 5332 5329 5328 5328 5328 5331 5333 5334 5336 5339 5343 5347 5351 5356 5359 5364 5369 5373 5377 5380 5383 5385 5386 5386 5387 5387 5386 5385 5384 5383 5382 5380 5379 5377 5376 5374 5373 5372
5336 5330 5325 5321 5317 5314 5312 5310 5310 5310 5312 5315 5318 5321 5324 5328 5333 5338 5343 5347 5353 5358 5363 5368 5371 5374 5376 5378 5379 5380 5380 5380 5379 5378 5376 5375 5375 5373 5372 5371 5369 5368 5367
5321 5316 5311 5305 5301 5298 5295 5294 5293 5294 5296 5299 5302 5305 5308 5313 5318 5324 5329 5335 5341 5347 5353 5358 5362 5365 5368 5370 5371 5372 5373 5373 5372 5371 5370 5369 5369 5368 5367 5366 5365 5364 5363
5306 5301 5297 5292 5287 5284 5281 5280 5279 5279 5281 5284 5288 5291 5296 5300 5305 5311 5317 5323 5330 5336 5342 5347 5352 5356 5360 5362 5363 5364 5366 5367 5366 5366 5365 5364 5363 5362 5362 5361 5360 5359 5358
5293 5287 5283 5278 5275 5272 5270 5269 5268 5268 5270 5272 5276 5279 5283 5288 5293 5299 5305 5312 5319 5326 5332 5337 5342 5348 5352 5355 5356 5358 5359 5360 5361 5360 5359 5358 5357 5357 5356 5355 5354 5353 5352
5280 5275 5271 5268 5264 5263 5261 5260 5259 5260 5261 5263 5265 5268 5272 5276 5282 5288 5295 5302 5308 5315 5322 5328 5333 5338 5343 5347 5350 5352 5354 5355 5356 5355 5354 5353 5352 5352 5352 5351 5350 5348 5347
5268 5264 5261 5258 5256 5254 5253 5252 5252 5252 5253 5255 5257 5259 5263 5267 5272 5279 5285 5292 5299 5306 5313 5319 5325 5330 5334 5338 5342 5344 5347 5348 5349 5349 5349 5349 5348 5347 5346 5345 5344 5343 5342
5257 5254 5251 5249 5247 5246 5245 5245 5244 5245 5246 5248 5250 5252 5255 5259 5264 5269 5275 5282 5289 5296 5303 5310 5316 5321 5326 5330 5333 5336 5339 5340 5342 5342 5342 5342 5342 5341 5340 5339 5338 5337 5335
5248 5245 5243 5241 5239 5238 5237 5237 5237 5238 5239 5241 5243 5245 5248 5252 5257 5262 5267 5274 5280 5287 5294 5301 5307 5312 5317 5321 5325 5328 5330 5332 5334 5335 5336 5336 5335 5335 5334 5333 5331 5330 5328